Location: Maignaut
(43.8886°N, 0.4051°E)
Time: 04:37:12
(UTC+00:00)

STARLINK-1056 - Pass Details

Date: 27 February 2020
Orbit: 549 x 550 km, 53.0° (Epoch: 02 April)

Event Time Altitude Azimuth Distance (km) Brightness Sun altitude
Rises 18:44:20 0° 239° (WSW) 2,708 8.3 -11.7°
Reaches altitude 10° 18:46:34 10° 240° (WSW) 1,819 7.3 -12.1°
Maximum altitude 18:50:42 76° 327° (NNW) 571 3.7 -12.9°
Enters shadow 18:54:05 15° 52° (NE) 1,529 5.4 -13.5°
